| time (UTC) | temp F | wind direction | speed MPH | gust MPH | rain 1hr in | rain 24hr in | rain mn in | humidity % | barometer mb |
| 20260509043038 | 45 | 168 | 7.0 | 0.0 | 0.00 | 0.00 | 0.00 | 47 | 978.4 |
| 20260509041521 | 46 | 170 | 7.0 | 0.0 | 0.00 | 0.00 | 0.00 | 47 | 978.4 |
| 20260509040052 | 47 | 169 | 7.0 | 0.0 | 0.00 | 0.00 | 0.00 | 47 | 978.4 |
| 20260509034521 | 47 | 182 | 6.0 | 0.0 | 0.00 | 0.00 | 0.00 | 47 | 979.2 |
| 20260509033037 | 47 | 184 | 6.0 | 0.0 | 0.00 | 0.00 | 0.00 | 38 | 979.9 |
| 20260509031521 | 48 | 172 | 6.0 | 0.0 | 0.00 | 0.00 | 0.00 | 38 | 979.9 |
| 20260509030050 | 48 | 172 | 6.0 | 0.0 | 0.00 | 0.00 | 0.00 | 38 | 979.9 |
| 20260509024521 | 49 | 173 | 5.0 | 0.0 | 0.00 | 0.00 | 0.00 | 33 | 980.2 |
| 20260509023039 | 50 | 184 | 6.0 | 0.0 | 0.00 | 0.00 | 0.00 | 33 | 980.2 |
| 20260509021521 | 50 | 199 | 6.0 | 0.0 | 0.00 | 0.00 | 0.00 | 33 | 980.2 |
| 20260509020048 | 51 | 204 | 6.0 | 0.0 | 0.00 | 0.00 | 0.00 | 33 | 980.2 |
| 20260509014521 | 51 | 210 | 6.0 | 0.0 | 0.00 | 0.00 | 0.00 | 34 | 980.1 |
| 20260509013036 | 52 | 233 | 4.0 | 0.0 | 0.00 | 0.00 | 0.00 | 34 | 980.1 |
| 20260509011520 | 53 | 240 | 3.0 | 0.0 | 0.00 | 0.00 | 0.00 | 34 | 980.1 |
| 20260509010045 | 55 | 259 | 3.0 | 0.0 | 0.00 | 0.00 | 0.00 | 34 | 980.1 |
| 20260509004520 | 55 | 261 | 4.0 | 0.0 | 0.00 | 0.00 | 0.00 | 27 | 979.9 |
| 20260509003039 | 55 | 257 | 4.0 | 0.0 | 0.00 | 0.00 | 0.00 | 28 | 981.2 |
| 20260509001520 | 57 | 267 | 4.0 | 0.0 | 0.00 | 0.00 | 0.00 | 28 | 981.2 |
| 20260509000050 | 58 | 268 | 5.0 | 0.0 | 0.00 | 0.00 | 0.00 | 28 | 981.2 |
| 20260508234520 | 59 | 266 | 7.0 | 0.0 | 0.00 | 0.00 | 0.00 | 23 | 980.4 |
| 20260508233040 | 59 | 265 | 8.0 | 0.0 | 0.00 | 0.00 | 0.00 | 22 | 980.9 |
| 20260508231522 | 60 | 267 | 8.0 | 0.0 | 0.00 | 0.00 | 0.00 | 22 | 980.9 |
| 20260508230045 | 60 | 273 | 9.0 | 0.0 | 0.00 | 0.00 | 0.00 | 22 | 980.9 |
| 20260508224522 | 60 | 271 | 10.0 | 0.0 | 0.00 | 0.00 | 0.00 | 23 | 981.0 |
| 20260508223040 | 60 | 271 | 11.0 | 0.0 | 0.00 | 0.00 | 0.00 | 21 | 981.8 |
| 20260508221523 | 60 | 270 | 11.0 | 0.0 | 0.00 | 0.00 | 0.00 | 21 | 981.8 |
| 20260508220045 | 61 | 268 | 12.0 | 0.0 | 0.00 | 0.00 | 0.00 | 21 | 981.8 |
| 20260508214523 | 61 | 268 | 12.0 | 0.0 | 0.00 | 0.00 | 0.00 | 22 | 982.4 |
| 20260508213040 | 61 | 263 | 12.0 | 0.0 | 0.00 | 0.00 | 0.00 | 23 | 981.9 |
| 20260508211522 | 62 | 253 | 11.0 | 0.0 | 0.00 | 0.00 | 0.00 | 23 | 981.9 |
| 20260508210050 | 62 | 253 | 11.0 | 0.0 | 0.00 | 0.00 | 0.00 | 23 | 981.9 |
| 20260508204523 | 62 | 252 | 12.0 | 0.0 | 0.00 | 0.00 | 0.00 | 24 | 982.0 |
| 20260508203041 | 62 | 248 | 12.0 | 0.0 | 0.00 | 0.00 | 0.00 | 21 | 981.7 |
| 20260508201522 | 62 | 247 | 10.0 | 0.0 | 0.00 | 0.00 | 0.00 | 21 | 981.7 |
| 20260508200046 | 62 | 245 | 10.0 | 0.0 | 0.00 | 0.00 | 0.00 | 19 | 981.7 |
| 20260508194523 | 62 | 241 | 10.0 | 0.0 | 0.00 | 0.00 | 0.00 | 20 | 982.0 |
| 20260508193037 | 62 | 238 | 10.0 | 0.0 | 0.00 | 0.00 | 0.00 | 20 | 982.0 |
| 20260508191522 | 62 | 254 | 10.0 | 0.0 | 0.00 | 0.00 | 0.00 | 20 | 982.0 |
| 20260508190045 | 62 | 254 | 10.0 | 0.0 | 0.00 | 0.00 | 0.00 | 20 | 982.0 |
| 20260508184523 | 62 | 250 | 10.0 | 0.0 | 0.00 | 0.00 | 0.00 | 26 | 982.4 |
| 20260508183042 | 62 | 243 | 10.0 | 0.0 | 0.00 | 0.00 | 0.00 | 25 | 982.1 |
| 20260508181522 | 61 | 242 | 10.0 | 0.0 | 0.00 | 0.00 | 0.00 | 25 | 982.1 |
| 20260508180049 | 61 | 244 | 10.0 | 0.0 | 0.00 | 0.00 | 0.00 | 25 | 982.1 |
| 20260508174523 | 60 | 243 | 11.0 | 0.0 | 0.00 | 0.00 | 0.00 | 31 | 983.1 |
| 20260508173041 | 60 | 244 | 11.0 | 0.0 | 0.00 | 0.00 | 0.00 | 31 | 983.1 |
| 20260508171522 | 60 | 243 | 11.0 | 0.0 | 0.00 | 0.00 | 0.00 | 31 | 983.1 |
| 20260508170047 | 59 | 246 | 10.0 | 0.0 | 0.00 | 0.00 | 0.00 | 31 | 983.1 |
| 20260508164522 | 59 | 247 | 10.0 | 0.0 | 0.00 | 0.00 | 0.00 | 36 | 983.5 |
| 20260508163041 | 58 | 242 | 9.0 | 0.0 | 0.00 | 0.00 | 0.00 | 36 | 983.7 |
| 20260508161523 | 57 | 236 | 9.0 | 0.0 | 0.00 | 0.00 | 0.00 | 36 | 983.6 |
| 20260508160050 | 56 | 233 | 9.0 | 0.0 | 0.00 | 0.00 | 0.00 | 36 | 983.6 |
| 20260508154523 | 55 | 224 | 8.0 | 0.0 | 0.00 | 0.00 | 0.00 | 46 | 984.6 |
| 20260508153042 | 55 | 205 | 7.0 | 0.0 | 0.00 | 0.00 | 0.00 | 45 | 983.5 |
| 20260508151522 | 54 | 196 | 7.0 | 0.0 | 0.00 | 0.00 | 0.00 | 45 | 983.5 |
| 20260508150049 | 53 | 198 | 7.0 | 0.0 | 0.00 | 0.00 | 0.00 | 45 | 983.5 |
| 20260508144523 | 52 | 195 | 6.0 | 0.0 | 0.00 | 0.00 | 0.00 | 59 | 983.7 |
| 20260508143040 | 52 | 192 | 6.0 | 0.0 | 0.00 | 0.00 | 0.00 | 57 | 983.8 |
| 20260508141523 | 51 | 187 | 5.0 | 0.0 | 0.00 | 0.00 | 0.00 | 57 | 983.8 |
| 20260508140053 | 50 | 185 | 5.0 | 0.0 | 0.00 | 0.00 | 0.00 | 60 | 983.7 |
| 20260508134523 | 49 | 188 | 4.0 | 0.0 | 0.00 | 0.00 | 0.00 | 70 | 983.5 |
| 20260508133038 | 47 | 190 | 6.0 | 0.0 | 0.00 | 0.00 | 0.00 | 70 | 983.5 |
| 20260508131523 | 46 | 190 | 6.0 | 0.0 | 0.00 | 0.00 | 0.00 | 70 | 983.5 |
| 20260508130052 | 44 | 186 | 6.0 | 0.0 | 0.00 | 0.00 | 0.00 | 70 | 983.5 |
| 20260508124523 | 43 | 182 | 6.0 | 0.0 | 0.00 | 0.00 | 0.00 | 83 | 982.8 |
| 20260508123041 | 42 | 191 | 5.0 | 0.0 | 0.00 | 0.00 | 0.00 | 83 | 983.4 |
| 20260508121522 | 41 | 186 | 4.0 | 0.0 | 0.00 | 0.00 | 0.00 | 83 | 983.4 |
| 20260508120057 | 39 | 176 | 2.0 | 0.0 | 0.00 | 0.00 | 0.00 | 83 | 983.4 |
| 20260508114522 | 37 | 171 | 2.0 | 0.0 | 0.00 | 0.00 | 0.00 | 80 | 982.9 |
| 20260508113043 | 36 | 172 | 3.0 | 0.0 | 0.00 | 0.00 | 0.00 | 76 | 983.5 |
| 20260508111522 | 36 | 159 | 3.0 | 0.0 | 0.00 | 0.00 | 0.00 | 76 | 983.6 |
| 20260508110046 | 35 | 153 | 3.0 | 0.0 | 0.00 | 0.00 | 0.00 | 76 | 983.6 |
| 20260508104525 | 35 | 148 | 2.0 | 0.0 | 0.00 | 0.00 | 0.00 | 76 | 982.7 |
| 20260508103042 | 35 | 127 | 2.0 | 0.0 | 0.00 | 0.00 | 0.00 | 75 | 983.7 |
| 20260508101525 | 36 | 135 | 1.0 | 0.0 | 0.00 | 0.00 | 0.00 | 75 | 983.7 |
| 20260508100045 | 36 | 146 | 1.0 | 0.0 | 0.00 | 0.00 | 0.00 | 75 | 983.7 |
| 20260508094524 | 36 | 135 | 1.0 | 0.0 | 0.00 | 0.00 | 0.00 | 74 | 983.0 |
| 20260508093038 | 37 | 135 | 2.0 | 0.0 | 0.00 | 0.00 | 0.00 | 81 | 983.7 |
| 20260508091525 | 37 | 180 | 3.0 | 0.0 | 0.00 | 0.00 | 0.00 | 81 | 983.7 |
| 20260508090049 | 37 | 186 | 4.0 | 0.0 | 0.00 | 0.00 | 0.00 | 81 | 983.7 |
| 20260508084524 | 37 | 189 | 4.0 | 0.0 | 0.00 | 0.00 | 0.00 | 77 | 983.2 |
| 20260508083042 | 37 | 189 | 4.0 | 0.0 | 0.00 | 0.00 | 0.00 | 74 | 983.0 |
| 20260508081524 | 38 | 186 | 4.0 | 0.0 | 0.00 | 0.00 | 0.00 | 74 | 983.0 |
| 20260508080051 | 38 | 177 | 4.0 | 0.0 | 0.00 | 0.00 | 0.00 | 74 | 983.0 |
| 20260508074525 | 39 | 177 | 4.0 | 0.0 | 0.00 | 0.00 | 0.00 | 78 | 983.9 |
| 20260508073043 | 39 | 185 | 4.0 | 0.0 | 0.00 | 0.00 | 0.00 | 78 | 983.9 |
| 20260508071523 | 39 | 199 | 4.0 | 0.0 | 0.00 | 0.00 | 0.00 | 78 | 983.9 |
| 20260508070052 | 39 | 199 | 4.0 | 0.0 | 0.00 | 0.00 | 0.00 | 78 | 983.9 |
| 20260508064523 | 39 | 198 | 4.0 | 0.0 | 0.00 | 0.00 | 0.00 | 57 | 983.5 |
| 20260508063039 | 40 | 210 | 4.0 | 0.0 | 0.00 | 0.00 | 0.00 | 67 | 984.0 |
| 20260508061524 | 40 | 196 | 3.0 | 0.0 | 0.00 | 0.00 | 0.00 | 67 | 984.0 |
| 20260508060058 | 41 | 199 | 4.0 | 0.0 | 0.00 | 0.00 | 0.00 | 67 | 984.0 |
| 20260508054523 | 41 | 205 | 3.0 | 0.0 | 0.00 | 0.00 | 0.00 | 61 | 984.7 |
| 20260508053043 | 41 | 195 | 2.0 | 0.0 | 0.00 | 0.00 | 0.00 | 68 | 984.3 |
| 20260508051523 | 41 | 132 | 2.0 | 0.0 | 0.00 | 0.00 | 0.00 | 68 | 984.3 |
| 20260508050051 | 41 | 94 | 3.0 | 0.0 | 0.00 | 0.00 | 0.00 | 68 | 984.3 |
| 20260508044522 | 41 | 53 | 2.0 | 0.0 | 0.00 | 0.00 | 0.00 | 63 | 984.7 |